Weather History for Charlotte, NC

Change the Weather History Date:

Thursday, September 25, 2003

  Actual Average Record
Temperature  
Mean Temperature 69 °F 68 °F  
Max Temperature 82 °F 78 °F 94 °F (1961)
Min Temperature 57 °F 57 °F 40 °F (1887)
Degree Days  
Heating Degree Days 0 2  
Month to date heating degree days 11  
Since 1 July heating degree days 11  
Cooling Degree Days 4 4  
Month to date cooling degree days 181  
Year to date cooling degree days 1458  
Growing Degree Days 19 (Base 50)    
Moisture  
Dew Point 61 °F    
Average Humidity 79    
Maximum Humidity 100    
Minimum Humidity 49    
Precipitation  
Precipitation 0.00 in 0.11 in 1.31 in (1956)
Month to date precipitation 2.67  
Year to date precipitation 31.27  
Snow  
Snow 0.00 in 0.00 in 0.00 in ()
Month to date snowfall 0.0  
Since 1 July snowfall 0.0  
Since 1 September snowfall 0.0  
Snow Depth -    
Sea Level Pressure  
Sea Level Pressure 30.04 in    
Wind  
Wind Speed 2 mph (SW)    
Max Wind Speed 7 mph    
Max Gust Speed -    
Visibility 9 miles    
Events      
T = Trace of Precipitation, MM = Missing Value Source: NWS Daily Summary

Daily Weather History Graph

Daily Weather History Graph

Search for Another Location

Airport:

Trip Planner

Search our weather history database for the weather conditions in past years. The results will help you decide how hot, cold, wet, or windy it might be!

Date:

Astronomy

Sep. 25, 2003 Rise Set
Actual Time 7:13 AM EDT 7:16 PM EDT
Civil Twilight 6:48 AM EDT 7:42 PM EDT
Nautical Twilight 6:18 AM EDT 8:11 PM EDT
Astronomical Twilight 5:49 AM EDT 8:41 PM EDT
Moon 6:28 AM EDT (9/25) 7:23 PM EDT (9/25)
Length of Visible Light 12h 53m
Length of Day
12h 03m
Waning Crescent, 0% of the Moon is Illuminated
Sep 25
Waning Crescent
Sep 25
New
Oct 2
First Quarter
Oct 10
Full
Oct 18
Last Quarter

Hourly Weather History & Observations

Time (EDT) Temp. Heat Index Dew Point Humidity Pressure Visibility Wind Dir Wind Speed Gust Speed Precip Events Conditions
12:51 AM 63.0 °F - 59.0 °F 87% 30.07 in 10.0 mi Calm Calm - N/A   Partly Cloudy
1:51 AM 60.1 °F - 59.0 °F 96% 30.06 in 8.0 mi Calm Calm - N/A   Partly Cloudy
2:51 AM 57.9 °F - 57.9 °F 100% 30.07 in 7.0 mi NW 4.6 mph - N/A   Partly Cloudy
3:51 AM 59.0 °F - 59.0 °F 100% 30.06 in 7.0 mi Calm Calm - N/A   Partly Cloudy
4:51 AM 59.0 °F - 59.0 °F 100% 30.06 in 7.0 mi Calm Calm - N/A   Clear
5:51 AM 57.0 °F - 57.0 °F 100% 30.06 in 7.0 mi Calm Calm - N/A   Clear
6:51 AM 57.0 °F - 57.0 °F 100% 30.07 in 7.0 mi WNW 3.5 mph - N/A   Partly Cloudy
7:51 AM 57.0 °F - 57.0 °F 100% 30.09 in 7.0 mi Calm Calm - N/A   Partly Cloudy
8:51 AM 64.0 °F - 62.1 °F 93% 30.08 in 7.0 mi Calm Calm - N/A   Partly Cloudy
9:51 AM 69.1 °F - 63.0 °F 81% 30.08 in 7.0 mi Calm Calm - N/A   Partly Cloudy
10:51 AM 73.9 °F - 62.1 °F 66% 30.09 in 10.0 mi Variable 6.9 mph - N/A   Partly Cloudy
11:51 AM 77.0 °F - 61.0 °F 58% 30.09 in 10.0 mi Variable 5.8 mph - N/A   Partly Cloudy
12:51 PM 79.0 °F - 61.0 °F 54% 30.06 in 10.0 mi Variable 6.9 mph - N/A   Clear
1:51 PM 79.0 °F - 60.1 °F 52% 30.05 in 10.0 mi Variable 5.8 mph - N/A   Partly Cloudy
2:51 PM 81.0 °F 81.7 °F 61.0 °F 50% 30.02 in 10.0 mi Variable 3.5 mph - N/A   Clear
3:51 PM 81.0 °F 81.9 °F 62.1 °F 52% 30.00 in 10.0 mi SSW 6.9 mph - N/A   Clear
4:51 PM 81.0 °F 81.6 °F 60.1 °F 49% 29.98 in 10.0 mi South 5.8 mph - N/A   Partly Cloudy
5:51 PM 79.0 °F - 62.1 °F 56% 29.98 in 10.0 mi Calm Calm - N/A   Partly Cloudy
6:51 PM 73.9 °F - 64.0 °F 71% 29.98 in 10.0 mi Calm Calm - N/A   Partly Cloudy
7:51 PM 71.1 °F - 63.0 °F 75% 29.98 in 10.0 mi SSW 3.5 mph - N/A   Partly Cloudy
8:51 PM 66.0 °F - 63.0 °F 90% 29.99 in 10.0 mi SSW 3.5 mph - N/A   Clear
9:51 PM 66.9 °F - 63.0 °F 87% 30.00 in 10.0 mi Calm Calm - N/A   Clear
10:51 PM 66.9 °F - 63.0 °F 87% 30.00 in 9.0 mi Calm Calm - N/A   Clear
11:51 PM 66.0 °F - 63.0 °F 90% 30.01 in 7.0 mi Calm Calm - N/A   Clear